Simultaneous Nadir Overpasses (SNOs) Predictions

Prediction of SNOs between AQUA and METOP-A Satellite Orbit:

Table of predicted SNOs for the next 14.0 days since TLE Epoch: 12/13/2014
Index Date (AQUA) Time (AQUA) Lat,Lon (AQUA) SZA (AQUA ) Date (METOP-A) Time (METOP-A) Lat,Lon (METOP-A) SZA (METOP-A ) Distance(km) Time Diff (sec)
1 12/13/2014 16:57:27 73.11, -78.67 96.20 12/13/2014 16:56:21 73.06, -81.43 96.22 89.56 66
2 12/13/2014 17:47:05 -73.77, 87.60 83.12 12/13/2014 17:46:49 -73.76, 87.48 83.12 3.63 16
3 12/13/2014 18:36:34 73.84,-104.93 96.96 12/13/2014 18:37:27 73.84,-105.00 96.96 2.31 53
4 12/16/2014 12:31:47 73.33, -12.67 96.58 12/16/2014 12:30:38 73.30, -14.50 96.60 58.51 69
5 12/16/2014 13:21:22 -73.82, 153.92 82.91 12/16/2014 13:21:10 -73.80, 153.98 82.93 2.95 12
6 12/16/2014 14:10:50 73.84, -38.50 97.13 12/16/2014 14:11:48 73.87, -38.51 97.15 3.22 58
7 12/19/2014 08:06:07 73.59, 53.22 96.95 12/19/2014 08:04:55 73.52, 52.42 96.91 26.11 72
8 12/19/2014 08:55:37 -73.81,-139.63 82.82 12/19/2014 08:55:31 -73.83,-139.54 82.81 2.96 6
9 12/19/2014 09:45:05 73.84, 27.94 97.22 12/19/2014 09:46:10 73.85, 27.85 97.22 2.78 65
10 12/22/2014 03:40:23 73.74, 119.34 97.14 12/22/2014 03:39:11 73.74, 119.34 97.15 0.14 72
11 12/22/2014 04:29:50 -73.80, -73.16 82.79 12/22/2014 04:29:52 -73.79, -73.21 82.80 1.82 2
12 12/22/2014 05:19:19 73.89, 94.28 97.30 12/22/2014 05:20:30 73.87, 94.30 97.27 2.95 71
13 12/24/2014 23:14:36 73.72,-174.18 97.10 12/24/2014 23:13:32 73.75,-174.23 97.13 2.78 64
14 12/25/2014 00:04:03 -73.79, -6.68 82.84 12/25/2014 00:04:13 -73.80, -6.78 82.82 3.44 10




NCC Satellite Simultaneous Nadir Overpasses (SNOs) Prediction Service
